Location: Kassel
(51.3066°N, 9.4716°E)
Time: 12:42:23
(UTC+01:00)

ISS - Visible Passes

Search period start: 09 December 2025 00:00
Search period end: 19 December 2025 00:00
Orbit: 416 x 421 km, 51.6° (Epoch: 08 December)

Date Brightness Start Highest point End Pass type
(mag) Time Alt. Az. Time Alt. Az. Time Alt. Az.
11 Dec -0.1 07:15:46 10° SSE 07:16:48 11° SE 07:17:49 10° ESE visible
13 Dec -1.1 07:14:35 10° SSW 07:17:18 23° SE 07:20:02 10° E visible
14 Dec -0.8 06:27:23 10° S 06:29:32 16° SE 06:31:41 10° E visible
15 Dec -0.5 05:40:55 10° SSE 05:41:47 11° SE 05:42:39 10° ESE visible
15 Dec -2.5 07:14:40 10° SW 07:17:53 43° SSE 07:21:07 10° E visible
16 Dec -2.0 06:26:57 10° SSW 06:29:59 31° SSE 06:33:01 10° E visible
17 Dec -1.6 05:41:24 21° SSE 05:42:05 22° SE 05:44:47 10° E visible
17 Dec -3.5 07:15:08 10° WSW 07:18:31 72° SSE 07:21:53 10° E visible
18 Dec -0.4 04:55:46 12° ESE 04:55:46 12° ESE 04:56:19 10° ESE visible
18 Dec -3.2 06:28:43 24° SW 06:30:29 56° SSE 06:33:48 10° E visible
